TimeEST,TemperatureF,Dew PointF,Humidity,Sea Level PressureIn,VisibilityMPH,Wind Direction,Wind SpeedMPH,Gust SpeedMPH,PrecipitationIn,Events,Conditions,WindDirDegrees,DateUTC
12:51 AM,33.1,17.1,52,30.08,10.0,SE,5.8,-,N/A,,Clear,130,2013-02-26 05:51:00
1:51 AM,28.9,17.1,61,30.08,10.0,SE,3.5,-,N/A,,Clear,140,2013-02-26 06:51:00
2:51 AM,28.9,18.0,64,30.04,10.0,Calm,Calm,-,N/A,,Clear,0,2013-02-26 07:51:00
3:51 AM,30.9,19.9,64,30.00,10.0,SSE,3.5,-,N/A,,Clear,150,2013-02-26 08:51:00
4:51 AM,36.0,18.0,48,29.99,10.0,SSE,6.9,-,N/A,,Clear,160,2013-02-26 09:51:00
5:51 AM,36.0,18.0,48,29.99,10.0,SSE,6.9,-,N/A,,Clear,150,2013-02-26 10:51:00
6:51 AM,39.0,19.0,45,29.96,10.0,SSE,8.1,-,N/A,,Overcast,160,2013-02-26 11:51:00
7:51 AM,39.0,21.0,49,29.96,10.0,SSE,8.1,-,N/A,,Overcast,160,2013-02-26 12:51:00
8:51 AM,39.0,21.9,50,29.95,10.0,SE,18.4,32.2,N/A,,Mostly Cloudy,140,2013-02-26 13:51:00
9:51 AM,39.0,21.0,49,29.94,10.0,South,18.4,29.9,N/A,,Overcast,170,2013-02-26 14:51:00
10:51 AM,37.0,24.1,59,29.95,10.0,SSE,11.5,23.0,0.00,Rain,Light Rain,150,2013-02-26 15:51:00
11:51 AM,37.0,27.0,67,29.90,10.0,ESE,15.0,25.3,0.00,,Overcast,120,2013-02-26 16:51:00
12:51 PM,39.9,30.0,68,29.79,10.0,SSE,11.5,29.9,0.02,,Mostly Cloudy,150,2013-02-26 17:51:00
1:13 PM,39.2,30.2,70,29.71,10.0,SSE,12.7,25.3,0.00,Rain,Light Rain,160,2013-02-26 18:13:00
1:26 PM,39.2,30.2,70,29.70,10.0,South,12.7,24.2,0.00,Rain,Light Rain,170,2013-02-26 18:26:00
1:51 PM,41.0,30.0,65,29.75,10.0,SSE,11.5,23.0,0.00,,Overcast,150,2013-02-26 18:51:00
2:48 PM,42.8,33.8,70,29.65,9.0,SSE,10.4,23.0,0.00,Rain,Light Rain,160,2013-02-26 19:48:00
2:51 PM,43.0,33.1,68,29.69,10.0,South,13.8,23.0,0.00,Rain,Light Rain,170,2013-02-26 19:51:00
3:51 PM,45.0,32.0,60,29.64,10.0,SSE,10.4,28.8,0.00,,Mostly Cloudy,160,2013-02-26 20:51:00
4:51 PM,43.0,32.0,65,29.60,10.0,Variable,6.9,24.2,0.00,Rain,Light Rain,0,2013-02-26 21:51:00
5:06 PM,42.8,32.0,66,29.56,9.0,SSW,8.1,19.6,0.00,Rain,Light Rain,210,2013-02-26 22:06:00
5:51 PM,41.0,33.1,73,29.65,6.0,SSE,4.6,-,0.04,Rain,Light Rain,160,2013-02-26 22:51:00
6:21 PM,41.0,33.8,76,29.60,8.0,South,5.8,29.9,0.02,Rain,Light Rain,170,2013-02-26 23:21:00
6:51 PM,39.9,32.0,73,29.63,10.0,Variable,6.9,31.1,0.03,,Mostly Cloudy,0,2013-02-26 23:51:00
7:51 PM,42.1,32.0,67,29.61,10.0,Variable,4.6,-,N/A,,Scattered Clouds,0,2013-02-27 00:51:00
8:10 PM,42.8,33.8,70,29.58,10.0,Variable,5.8,-,N/A,,Mostly Cloudy,0,2013-02-27 01:10:00
8:29 PM,42.8,33.8,70,29.58,10.0,Variable,5.8,23.0,N/A,,Mostly Cloudy,0,2013-02-27 01:29:00
8:51 PM,43.0,33.1,68,29.64,10.0,SSE,10.4,21.9,N/A,,Mostly Cloudy,150,2013-02-27 01:51:00
9:05 PM,42.8,33.8,70,29.60,10.0,SE,11.5,17.3,N/A,,Overcast,130,2013-02-27 02:05:00
9:51 PM,41.0,33.1,73,29.63,10.0,SE,9.2,-,N/A,,Mostly Cloudy,130,2013-02-27 02:51:00
9:59 PM,41.0,33.8,76,29.58,10.0,SE,8.1,-,N/A,,Mostly Cloudy,140,2013-02-27 02:59:00
10:51 PM,42.1,34.0,73,29.62,10.0,SSE,6.9,-,N/A,,Overcast,160,2013-02-27 03:51:00
11:51 PM,41.0,36.0,82,29.61,10.0,Calm,Calm,-,0.00,Rain,Light Rain,0,2013-02-27 04:51:00